FW7685 Weather Reports


Display with metric or nautical units.
time (UTC)temp
F
wind
direction
speed
MPH
gust
MPH
rain 1hr
in
rain 24hr
in
rain mn
in
humidity
%
barometer
mb
20260507192958 56 1 0.0 1.0 0.00 0.00 0.00 48 1014.5
20260507192500 56 89 0.0 2.0 0.00 0.00 0.00 48 1014.5
20260507191959 56 89 1.0 2.0 0.00 0.00 0.00 48 1014.5
20260507191458 56 341 0.0 3.0 0.00 0.00 0.00 48 1014.4
20260507190959 56 109 1.0 4.0 0.00 0.00 0.00 47 1014.4
20260507190457 56 61 2.0 4.0 0.00 0.00 0.00 47 1014.4
20260507185956 56 79 1.0 2.0 0.00 0.00 0.00 47 1014.4
20260507185458 56 63 1.0 3.0 0.00 0.00 0.00 47 1014.4
20260507184959 57 76 0.0 3.0 0.00 0.00 0.00 47 1014.4
20260507184458 57 1 1.0 2.0 0.00 0.00 0.00 47 1014.4
20260507183956 57 56 1.0 2.0 0.00 0.00 0.00 47 1014.4
20260507183458 57 117 0.0 2.0 0.00 0.00 0.00 47 1014.4
20260507182957 57 28 1.0 3.0 0.00 0.00 0.00 47 1014.3
20260507182857 57 56 1.0 3.0 0.00 0.00 0.00 46 1014.3
20260507182350 58 89 1.0 2.0 0.00 0.00 0.00 46 1014.3
20260507181458 58 135 0.0 2.0 0.00 0.00 0.00 46 1014.3
20260507181353 58 296 0.0 2.0 0.00 0.00 0.00 46 1014.3
20260507180455 58 178 1.0 2.0 0.00 0.00 0.00 46 1014.3
20260507175957 58 28 1.0 4.0 0.00 0.00 0.00 46 1014.2
20260507175457 58 45 1.0 4.0 0.00 0.00 0.00 46 1014.2
20260507174958 58 89 1.0 4.0 0.00 0.00 0.00 46 1014.1
20260507174457 59 35 1.0 4.0 0.00 0.00 0.00 46 1014.1
20260507174348 59 135 0.0 3.0 0.00 0.00 0.00 45 1014.1
20260507173457 59 269 0.0 3.0 0.00 0.00 0.00 45 1014.2
20260507172956 59 63 1.0 3.0 0.00 0.00 0.00 45 1014.1
20260507172455 59 234 1.0 3.0 0.00 0.00 0.00 45 1014.2
20260507171956 60 45 1.0 2.0 0.00 0.00 0.00 45 1014.2
20260507171457 60 314 0.0 4.0 0.00 0.00 0.00 44 1014.1
20260507170957 60 59 2.0 4.0 0.00 0.00 0.00 45 1014.1
20260507170457 60 72 2.0 4.0 0.00 0.00 0.00 44 1014.0
20260507165955 60 314 1.0 4.0 0.00 0.00 0.00 44 1014.0
20260507165457 60 56 1.0 3.0 0.00 0.00 0.00 44 1014.0
20260507164954 60 45 1.0 4.0 0.00 0.00 0.00 43 1014.0
20260507164454 60 45 2.0 4.0 0.00 0.00 0.00 42 1014.0
20260507164125 61 72 2.0 3.0 0.00 0.00 0.00 42 1014.0
20260507162956 61 314 1.0 3.0 0.00 0.00 0.00 41 1014.2
20260507162453 61 241 1.0 2.0 0.00 0.00 0.00 42 1014.1
20260507161957 61 45 1.0 3.0 0.00 0.00 0.00 41 1014.1
20260507161856 61 68 1.0 4.0 0.00 0.00 0.00 42 1014.1
20260507160955 61 80 1.0 4.0 0.00 0.00 0.00 42 1014.2
20260507160453 61 269 0.0 3.0 0.00 0.00 0.00 42 1014.2
20260507155954 61 341 1.0 4.0 0.00 0.00 0.00 42 1014.3
20260507155453 61 68 1.0 4.0 0.00 0.00 0.00 42 1014.2
20260507154954 61 257 1.0 4.0 0.00 0.00 0.00 41 1014.3
20260507154455 61 178 0.0 4.0 0.00 0.00 0.00 42 1014.2
20260507153954 61 63 1.0 3.0 0.00 0.00 0.00 43 1014.3
20260507153453 61 45 1.0 4.0 0.00 0.00 0.00 43 1014.3
20260507152954 61 241 1.0 4.0 0.00 0.00 0.00 43 1014.4
20260507152454 61 45 1.0 3.0 0.00 0.00 0.00 44 1014.3
20260507151954 61 135 1.0 3.0 0.00 0.00 0.00 44 1014.4
20260507151455 60 56 2.0 5.0 0.00 0.00 0.00 44 1014.4
20260507150954 60 178 1.0 5.0 0.00 0.00 0.00 45 1014.4
20260507150849 61 337 1.0 3.0 0.00 0.00 0.00 45 1014.3
20260507145954 61 89 1.0 4.0 0.00 0.00 0.00 45 1014.4
20260507145454 61 45 2.0 4.0 0.00 0.00 0.00 45 1014.3
20260507144949 61 89 1.0 5.0 0.00 0.00 0.00 44 1014.3
20260507144452 61 269 1.0 5.0 0.00 0.00 0.00 44 1014.4
20260507143949 61 135 1.0 5.0 0.00 0.00 0.00 43 1014.3
20260507143447 61 89 1.0 4.0 0.00 0.00 0.00 42 1014.4
20260507142946 62 269 1.0 3.0 0.00 0.00 0.00 40 1014.5
20260507142448 61 223 1.0 3.0 0.00 0.00 0.00 41 1014.5
20260507142340 61 314 1.0 3.0 0.00 0.00 0.00 39 1014.5
20260507141443 61 269 1.0 2.0 0.00 0.00 0.00 39 1014.5
20260507140943 61 63 1.0 2.0 0.00 0.00 0.00 35 1014.4
20260507140442 61 89 0.0 3.0 0.00 0.00 0.00 34 1014.4
20260507135937 61 234 2.0 3.0 0.00 0.00 0.00 34 1014.4
20260507135437 61 234 1.0 3.0 0.00 0.00 0.00 32 1014.5
20260507134936 61 213 1.0 4.0 0.00 0.00 0.00 34 1014.5
20260507134835 61 165 1.0 4.0 0.00 0.00 0.00 33 1014.5
20260507133934 61 327 1.0 3.0 0.00 0.00 0.00 34 1014.5
20260507133436 61 20 1.0 3.0 0.00 0.00 0.00 34 1014.5
20260507132933 61 321 0.0 3.0 0.00 0.00 0.00 34 1014.6
20260507132435 62 72 1.0 3.0 0.00 0.00 0.00 34 1014.6
20260507131933 62 63 0.0 4.0 0.00 0.00 0.00 33 1014.6
20260507131433 62 269 0.0 5.0 0.00 0.00 0.00 34 1014.6
20260507130933 62 89 1.0 5.0 0.00 0.00 0.00 34 1014.7
20260507130436 62 72 1.0 5.0 0.00 0.00 0.00 34 1014.6
20260507125934 62 306 2.0 5.0 0.00 0.00 0.00 33 1014.7
20260507125433 62 73 2.0 6.0 0.00 0.00 0.00 34 1014.6
20260507124934 62 269 3.0 6.0 0.00 0.00 0.00 34 1014.6
20260507124836 61 32 1.0 6.0 0.00 0.00 0.00 36 1014.6
20260507123934 60 56 3.0 6.0 0.00 0.00 0.00 37 1014.7
20260507123434 60 41 3.0 6.0 0.00 0.00 0.00 39 1014.7
20260507122933 59 49 2.0 5.0 0.00 0.00 0.00 37 1014.7
20260507122435 59 65 1.0 6.0 0.00 0.00 0.00 38 1014.8
20260507122331 59 66 2.0 6.0 0.00 0.00 0.00 38 1014.8
20260507121433 59 45 2.0 4.0 0.00 0.00 0.00 36 1014.8
20260507120931 59 1 1.0 3.0 0.00 0.00 0.00 34 1014.7
20260507120435 59 89 1.0 4.0 0.00 0.00 0.00 34 1014.8
20260507115931 58 252 2.0 4.0 0.00 0.00 0.00 33 1014.8
20260507115432 58 135 0.0 3.0 0.00 0.00 0.00 32 1014.8
20260507115326 58 89 1.0 4.0 0.00 0.00 0.00 34 1014.8
20260507114434 59 1 1.0 4.0 0.00 0.00 0.00 33 1014.8
20260507113931 59 45 1.0 3.0 0.00 0.00 0.00 38 1014.8
20260507113433 58 1 1.0 2.0 0.00 0.00 0.00 39 1014.8
20260507112932 58 1 1.0 2.0 0.00 0.00 0.00 39 1014.8
20260507112435 58 135 1.0 2.0 0.00 0.00 0.00 38 1014.8
20260507111933 58 28 0.0 3.0 0.00 0.00 0.00 39 1014.9
20260507111436 58 28 1.0 6.0 0.00 0.00 0.00 42 1014.8
20260507110931 57 35 2.0 6.0 0.00 0.00 0.00 42 1014.9
20260507110436 57 58 2.0 4.0 0.00 0.00 0.00 44 1015.0
20260507105931 57 45 0.0 2.0 0.00 0.00 0.00 42 1015.0
20260507105432 57 1 0.0 2.0 0.00 0.00 0.00 43 1015.0
20260507104933 57 331 1.0 2.0 0.00 0.00 0.00 42 1015.0
20260507104436 57 1 1.0 4.0 0.00 0.00 0.00 41 1015.0
20260507103932 57 135 1.0 4.0 0.00 0.00 0.00 42 1015.0
20260507103434 57 337 1.0 3.0 0.00 0.00 0.00 41 1015.0
20260507103328 57 330 1.0 3.0 0.00 0.00 0.00 40 1015.0
20260507102433 57 337 1.0 3.0 0.00 0.00 0.00 41 1015.0
20260507101933 57 269 1.0 3.0 0.00 0.00 0.00 41 1015.1
20260507101833 57 276 1.0 3.0 0.00 0.00 0.00 40 1015.2
20260507101328 57 89 0.0 3.0 0.00 0.00 0.00 40 1015.2
20260507100434 57 314 1.0 3.0 0.00 0.00 0.00 40 1015.2
20260507095932 57 321 1.0 3.0 0.00 0.00 0.00 40 1015.2
20260507095835 57 241 1.0 3.0 0.00 0.00 0.00 41 1015.2
20260507094931 57 219 1.0 3.0 0.00 0.00 0.00 41 1015.2
20260507094434 57 314 1.0 5.0 0.00 0.00 0.00 40 1015.2
20260507094323 57 314 1.0 5.0 0.00 0.00 0.00 42 1015.2
20260507093433 57 45 2.0 4.0 0.00 0.00 0.00 44 1015.1
20260507092931 57 178 1.0 4.0 0.00 0.00 0.00 44 1015.1
20260507092433 57 72 1.0 4.0 0.00 0.00 0.00 44 1015.1
20260507091930 57 314 1.0 4.0 0.00 0.00 0.00 44 1015.3
20260507091434 57 45 1.0 4.0 0.00 0.00 0.00 46 1015.1
20260507090931 57 314 1.0 4.0 0.00 0.00 0.00 47 1015.2
20260507090435 57 79 2.0 4.0 0.00 0.00 0.00 47 1015.2
20260507085933 57 63 2.0 4.0 0.00 0.00 0.00 48 1015.1
20260507085434 56 283 1.0 3.0 0.00 0.00 0.00 49 1015.2
20260507084932 56 117 0.0 3.0 0.00 0.00 0.00 50 1015.2
20260507084434 56 41 1.0 3.0 0.00 0.00 0.00 50 1015.3
20260507084333 55 72 1.0 4.0 0.00 0.00 0.00 51 1015.2
20260507083433 55 45 1.0 4.0 0.00 0.00 0.00 52 1015.3
20260507082931 54 135 2.0 4.0 0.00 0.00 0.00 52 1015.2
20260507082844 54 72 2.0 5.0 0.00 0.00 0.00 53 1015.2
20260507081932 53 39 2.0 5.0 0.00 0.00 0.00 53 1015.3
20260507081434 53 89 1.0 3.0 0.00 0.00 0.00 54 1015.3
20260507080932 52 178 1.0 4.0 0.00 0.00 0.00 55 1015.2
20260507080434 51 117 1.0 4.0 0.00 0.00 0.00 57 1015.2
20260507075933 51 35 1.0 3.0 0.00 0.00 0.00 59 1015.2
20260507075435 50 135 1.0 3.0 0.00 0.00 0.00 60 1015.2
20260507074933 50 79 1.0 2.0 0.00 0.00 0.00 61 1015.2
20260507074433 49 254 1.0 3.0 0.00 0.00 0.00 62 1015.2
20260507073931 49 78 2.0 3.0 0.00 0.00 0.00 63 1015.1
20260507073550 48 1 2.0 4.0 0.00 0.00 0.00 64 1015.2
20260507072418 47 16 1.0 3.0 0.00 0.00 0.00 64 1015.1
20260507071916 46 89 1.0 2.0 0.00 0.00 0.00 64 1015.1
20260507071416 46 89 1.0 3.0 0.00 0.00 0.00 64 1015.0
20260507070917 45 79 1.0 3.0 0.00 0.00 0.00 64 1015.0
20260507070414 45 76 1.0 3.0 0.00 0.00 0.00 64 1015.0
20260507065913 45 56 1.0 3.0 0.00 0.00 0.00 63 1015.0
20260507065413 44 104 1.0 3.0 0.00 0.00 0.00 63 1015.0
20260507064906 44 56 1.0 3.0 0.00 0.00 0.00 63 1015.1
20260507064408 44 314 1.0 3.0 0.00 0.00 0.00 63 1015.0
20260507063906 44 324 1.0 3.0 0.00 0.00 0.00 63 1015.0
20260507063406 44 314 1.0 3.0 0.00 0.00 0.00 63 1015.0
20260507062906 44 314 2.0 3.0 0.00 0.00 0.00 63 1015.0
20260507062404 44 314 1.0 2.0 0.00 0.00 0.00 63 1014.9
20260507061902 43 296 1.0 2.0 0.00 0.00 0.00 63 1014.9
20260507061405 43 314 1.0 2.0 0.00 0.00 0.00 63 1014.8
20260507060902 43 306 1.0 2.0 0.00 0.00 0.00 63 1014.9
20260507060407 43 324 1.0 2.0 0.00 0.00 0.00 63 1014.8
20260507055903 43 314 0.0 2.0 0.00 0.00 0.00 63 1014.9
20260507055407 43 306 1.0 2.0 0.00 0.00 0.00 63 1014.7
20260507054905 43 1 1.0 2.0 0.00 0.00 0.00 63 1014.7
20260507054405 43 45 1.0 2.0 0.00 0.00 0.00 63 1014.7
20260507053903 43 45 1.0 2.0 0.00 0.00 0.00 63 1014.6
20260507053406 42 1 0.0 1.0 0.00 0.00 0.00 62 1014.6
20260507052904 42 223 0.0 1.0 0.00 0.00 0.00 62 1014.6
20260507052405 42 1 0.0 1.0 0.00 0.00 0.00 61 1014.5
20260507051904 42 314 0.0 1.0 0.00 0.00 0.00 61 1014.5
20260507051406 42 45 0.0 1.0 0.00 0.00 0.00 61 1014.5
20260507050905 42 324 0.0 1.0 0.00 0.00 0.00 61 1014.5
20260507050759 42 321 0.0 1.0 0.00 0.00 0.00 61 1014.5
20260507045904 42 1 0.0 1.0 0.00 0.00 0.00 61 1014.5
20260507045407 42 178 0.0 1.0 0.00 0.00 0.00 61 1014.5
20260507044906 42 269 0.0 1.0 0.00 0.00 0.00 61 1014.5
20260507044406 42 45 0.0 1.0 0.00 0.00 0.00 61 1014.5
20260507043904 42 45 0.0 1.0 0.00 0.00 0.00 61 1014.4
20260507043404 42 1 0.0 1.0 0.00 0.00 0.00 61 1014.4
20260507043256 43 331 0.0 2.0 0.00 0.00 0.00 61 1014.3
20260507042405 43 1 1.0 2.0 0.00 0.00 0.00 61 1014.3
20260507041904 43 314 0.0 1.0 0.00 0.00 0.00 61 1014.3
20260507041405 43 296 0.0 1.0 0.00 0.00 0.00 61 1014.4
20260507040903 43 331 0.0 1.0 0.00 0.00 0.00 61 1014.4
20260507040406 43 314 0.0 1.0 0.00 0.00 0.00 61 1014.4
20260507040037 43 331 0.0 1.0 0.00 0.00 0.00 61 1014.4
20260507034903 43 89 0.0 2.0 0.00 0.00 0.00 61 1014.4
20260507034404 43 1 0.0 2.0 0.00 0.00 0.00 61 1014.4
20260507033903 43 45 0.0 1.0 0.00 0.00 0.00 61 1014.3
20260507033404 43 1 0.0 1.0 0.00 0.00 0.00 61 1014.3
20260507032905 43 314 0.0 1.0 0.00 0.00 0.00 61 1014.3
20260507032404 43 331 1.0 2.0 0.00 0.00 0.00 61 1014.3
20260507031904 43 314 1.0 2.0 0.00 0.00 0.00 60 1014.3
20260507031405 43 296 1.0 2.0 0.00 0.00 0.00 60 1014.3
20260507031301 43 314 1.0 2.0 0.00 0.00 0.00 60 1014.3
20260507030404 43 314 1.0 2.0 0.00 0.00 0.00 60 1014.3
20260507025903 44 314 0.0 2.0 0.00 0.00 0.00 60 1014.3
20260507025404 44 314 1.0 2.0 0.00 0.00 0.00 60 1014.3
20260507024904 44 314 0.0 2.0 0.00 0.00 0.00 60 1014.3
20260507024405 44 310 1.0 2.0 0.00 0.00 0.00 60 1014.3
20260507024256 44 303 0.0 2.0 0.00 0.00 0.00 60 1014.2
20260507023405 44 269 1.0 2.0 0.00 0.00 0.00 60 1014.3
20260507022904 44 269 0.0 2.0 0.00 0.00 0.00 60 1014.3
20260507022406 44 306 1.0 2.0 0.00 0.00 0.00 60 1014.2
20260507022300 44 303 1.0 2.0 0.00 0.00 0.00 60 1014.3
20260507021405 45 314 0.0 2.0 0.00 0.00 0.00 59 1014.3
20260507020902 45 45 0.0 2.0 0.00 0.00 0.00 60 1014.2
20260507020804 45 314 1.0 2.0 0.00 0.00 0.00 60 1014.2
20260507015903 45 314 0.0 2.0 0.00 0.00 0.00 59 1014.1
20260507015404 45 331 1.0 2.0 0.00 0.00 0.00 59 1014.1
20260507014903 45 269 0.0 2.0 0.00 0.00 0.00 59 1014.0
20260507014404 45 341 0.0 2.0 0.00 0.00 0.00 59 1014.1
20260507014258 45 1 1.0 2.0 0.00 0.00 0.00 59 1014.2
20260507013405 45 314 1.0 2.0 0.00 0.00 0.00 59 1014.1
20260507012903 46 45 0.0 2.0 0.00 0.00 0.00 59 1014.0
20260507012404 46 331 1.0 2.0 0.00 0.00 0.00 59 1014.1
20260507011901 46 1 1.0 2.0 0.00 0.00 0.00 59 1014.1
20260507011402 46 286 1.0 2.0 0.00 0.00 0.00 59 1014.2
20260507011254 46 331 1.0 2.0 0.00 0.00 0.00 58 1014.2
20260507010401 46 314 1.0 1.0 0.00 0.00 0.00 58 1014.2
20260507005900 46 241 0.0 2.0 0.00 0.00 0.00 58 1014.1
20260507005800 46 324 0.0 2.0 0.00 0.00 0.00 58 1014.1
20260507004858 47 269 0.0 2.0 0.00 0.00 0.00 58 1014.1
20260507004358 47 314 1.0 2.0 0.00 0.00 0.00 58 1014.1
20260507003858 47 331 0.0 2.0 0.00 0.00 0.00 58 1014.1
20260507003359 47 314 0.0 2.0 0.00 0.00 0.00 57 1014.1
20260507002858 47 314 0.0 2.0 0.00 0.00 0.00 57 1014.2
20260507002355 47 296 0.0 2.0 0.00 0.00 0.00 57 1014.2
20260507001854 47 269 0.0 1.0 0.00 0.00 0.00 57 1014.2
20260507001754 47 1 0.0 2.0 0.00 0.00 0.00 57 1014.2
20260507001249 48 314 1.0 2.0 0.00 0.00 0.00 57 1014.2
20260507000825 48 45 1.0 3.0 0.00 0.00 0.00 57 1014.2
20260506235853 48 269 1.0 3.0 0.00 0.00 0.00 57 1014.2
20260506235353 48 314 1.0 2.0 0.00 0.00 0.00 57 1014.2
20260506235248 48 296 1.0 2.0 0.00 0.00 0.00 57 1014.2
20260506234349 48 296 1.0 3.0 0.00 0.00 0.00 56 1014.0
20260506233850 48 314 0.0 3.0 0.00 0.00 0.00 56 1014.0
20260506233349 48 45 1.0 3.0 0.00 0.00 0.00 56 1013.9
20260506233238 49 321 1.0 2.0 0.00 0.00 0.00 56 1014.0
20260506232347 49 324 1.0 3.0 0.00 0.00 0.00 56 1013.9
20260506231847 49 314 1.0 3.0 0.00 0.00 0.00 55 1013.9
20260506231348 49 45 1.0 2.0 0.00 0.00 0.00 55 1013.9
20260506230846 49 1 1.0 2.0 0.00 0.00 0.00 54 1013.9
20260506230348 50 314 0.0 2.0 0.00 0.00 0.00 54 1013.9
20260506225846 50 306 0.0 1.0 0.00 0.00 0.00 54 1013.9
20260506225747 50 303 0.0 2.0 0.00 0.00 0.00 54 1014.0
20260506224847 50 45 0.0 2.0 0.00 0.00 0.00 54 1014.0
20260506224347 50 178 0.0 2.0 0.00 0.00 0.00 53 1014.0
20260506223845 50 178 0.0 2.0 0.00 0.00 0.00 53 1014.0
20260506223744 50 331 0.0 2.0 0.00 0.00 0.00 53 1014.0
20260506222845 51 1 1.0 2.0 0.00 0.00 0.00 53 1013.9
20260506222347 51 35 1.0 2.0 0.00 0.00 0.00 53 1013.9
20260506221845 51 324 1.0 3.0 0.00 0.00 0.00 52 1013.8
20260506221346 51 1 1.0 3.0 0.00 0.00 0.00 52 1013.8
20260506220844 51 28 1.0 3.0 0.00 0.00 0.00 52 1013.8
20260506220346 51 39 1.0 4.0 0.00 0.00 0.00 52 1013.8
20260506220242 51 296 1.0 4.0 0.00 0.00 0.00 51 1013.7
20260506215347 51 38 1.0 3.0 0.00 0.00 0.00 51 1013.7
20260506214845 52 331 1.0 2.0 0.00 0.00 0.00 50 1013.7
20260506214345 52 314 1.0 2.0 0.00 0.00 0.00 50 1013.7
20260506213845 52 63 1.0 2.0 0.00 0.00 0.00 50 1013.7
20260506213345 52 28 1.0 4.0 0.00 0.00 0.00 50 1013.7
20260506212844 52 23 1.0 4.0 0.00 0.00 0.00 49 1013.7
20260506212345 52 324 1.0 3.0 0.00 0.00 0.00 49 1013.7
20260506211842 52 28 2.0 3.0 0.00 0.00 0.00 49 1013.7
20260506211347 52 310 1.0 4.0 0.00 0.00 0.00 49 1013.7
20260506210844 52 310 1.0 4.0 0.00 0.00 0.00 48 1013.7
20260506210745 52 331 1.0 3.0 0.00 0.00 0.00 48 1013.6
20260506210236 53 25 2.0 4.0 0.00 0.00 0.00 48 1013.6
20260506205516 53 20 1.0 4.0 0.00 0.00 0.00 47 1013.6
20260506204515 53 63 1.0 5.0 0.00 0.00 0.00 47 1013.6
20260506203343 53 56 1.0 3.0 0.00 0.00 0.00 46 1013.5
20260506202844 53 337 1.0 4.0 0.00 0.00 0.00 45 1013.5
20260506202741 53 28 1.0 4.0 0.00 0.00 0.00 45 1013.4
20260506201842 53 1 2.0 4.0 0.00 0.00 0.00 46 1013.4
20260506201344 53 16 1.0 3.0 0.00 0.00 0.00 46 1013.3
20260506200842 53 303 1.0 3.0 0.00 0.00 0.00 46 1013.3
20260506200343 53 309 1.0 5.0 0.00 0.00 0.00 45 1013.2
20260506195843 53 16 2.0 5.0 0.00 0.00 0.00 45 1013.2
20260506195342 53 1 2.0 3.0 0.00 0.00 0.00 46 1013.1
20260506194842 53 89 1.0 3.0 0.00 0.00 0.00 46 1013.1
20260506194344 53 1 1.0 3.0 0.00 0.00 0.00 46 1013.1
20260506193843 53 306 0.0 3.0 0.00 0.00 0.00 46 1012.9